Location: Piotrkow Trybunalski
(51.4000°N, 19.6830°E)
Time: 15:13:17
(UTC+02:00)

A-11 Canister half - Pass Details

Date: 12 February 2023
Orbit: 1512 x 1687 km, 47.2° (Epoch: 26 March)

Event Time Altitude Azimuth Distance (km) Brightness Sun altitude
Rises 05:58:01 0° 173° (S) 4,906 11.9 -10.3°
Reaches altitude 10° 06:03:35 10° 149° (SSE) 3,895 11.7 -9.5°
Maximum altitude 06:07:37 13° 125° (SE) 3,618 12.1 -8.9°
Drops below altitude 10° 06:11:36 10° 100° (E) 3,850 12.9 -8.3°
Sets 06:16:58 0° 76° (ENE) 4,801 12.9 -7.4°
